Vorticity
3 3 6 6 7 8 6 6 5 -5 3 4 5 4 5 5 5 4 5 4 4 4 6 6 7 7 6 7 5 3 3 3 2 3 3 3 6 19 22 7 1 5 6
5 3 3 6 4 7 7 3 5 12 0 3 3 3 4 4 5 4 4 3 3 2 5 5 6 8 6 6 7 6 6 3 -0 1 4 4 1 9 19 19 21 4 4
1 5 9 4 3 6 2 5 7 6 3 4 4 4 3 4 3 2 5 4 -1 4 1 5 4 8 9 8 6 7 8 5 4 -0 1 3 4 9 18 10 10 8 9
9 3 6 6 7 6 4 5 7 11 16 3 4 4 3 2 2 2 4 4 5 -0 8 4 2 8 12 11 10 8 7 10 11 5 3 1 3 2 4 26 7 4 3
6 1 5 2 6 7 5 7 3 -1 -1 12 5 5 6 5 9 7 6 8 9 8 16 9 1 2 -1 14 -3 29 12 5 6 7 10 5 3 5 5 7 12 13 3
10 14 4 -2 3 4 4 3 0 6 1 1 4 5 10 6 14 27 -9 29 34 0 -3 16 43 7 -23 19 6 2 29 8 4 8 6 5 4 2 7 5 9 6 20
11 14 11 10 6 0 6 9 3 5 3 4 3 3 -0 -4 14 40 57 -18 50 27 32 -27 -2 3 2 -4 3 1 19 1 14 10 8 7 7 4 3 7 1 12 -15
12 14 13 10 11 9 10 7 5 5 6 6 5 5 5 6 -2 3 15 28 4 14 26 -7 3 8 12 3 -11 2 14 2 18 31 6 9 3 7 4 5 4 2 12
14 20 20 12 13 7 5 9 14 10 6 8 7 5 6 6 11 7 8 4 -3 6 -0 5 4 11 -0 7 -5 7 5 3 4 25 15 7 9 1 8 2 7 13 7
4 22 12 23 34 38 14 9 13 9 10 6 10 8 4 4 5 8 7 14 9 6 4 6 8 9 6 2 1 6 4 9 2 8 32 3 6 8 4 6 5 9 2
21 6 8 4 11 11 24 30 19 10 11 10 9 9 8 5 2 5 6 4 4 9 7 3 6 6 4 6 3 5 6 7 2 6 23 22 -3 7 9 10 4 5 7
19 -5 26 14 13 19 27 14 24 21 13 -0 9 13 4 6 3 8 10 10 8 8 10 8 6 7 7 6 5 8 9 4 5 4 11 15 18 -4 12 8 4 2 1
-2 23 8 11 8 10 12 18 13 18 24 6 8 9 6 9 17 8 9 10 11 10 7 9 7 5 6 7 8 11 9 9 7 4 8 22 25 8 -2 3 5 5 5
39 4 17 22 15 25 33 30 19 16 9 19 23 -3 15 12 9 11 11 10 11 10 8 4 4 4 4 8 10 8 5 5 7 2 3 -1 -17 -23 -8 17 1 5 4
0 9 6 -1 8 7 12 8 30 26 16 16 13 15 5 20 12 10 10 9 11 11 12 11 6 9 8 7 6 7 6 7 9 7 8 8 7 5 8 10 16 6 10
-3 17 -18 -1 4 2 11 2 17 27 20 19 11 18 21 18 10 10 10 8 9 7 7 8 11 11 10 9 8 8 8 8 8 6 3 6 11 1 6 10 4 4 -2
4 -9 10 14 7 -3 -2 2 23 4 28 30 14 7 9 13 13 9 10 12 10 14 10 -1 3 7 1 4 6 6 1 3 13 13 15 13 16 13 3 2 10 16 8
20 30 10 8 -3 17 13 11 6 16 14 19 20 17 31 -3 6 1 3 6 11 11 7 4 11 9 13 8 8 13 7 0 13 15 12 15 12 10 19 16 17 14 22
9 2 7 6 -1 -2 4 11 9 8 9 15 20 12 3 8 23 34 26 18 33 7 13 20 10 5 2 4 6 15 18 13 13 25 27 15 9 14 18 5 14 14 19
5 0 3 1 1 7 5 11 9 11 11 12 11 12 15 27 13 10 9 10 8 7 6 5 4 5 7 10 4 -6 14 18 17 14 25 25 20 19 4 22 4 18 15
2 2 2 2 10 6 12 10 6 9 8 10 11 13 9 7 11 13 10 9 10 11 12 7 10 4 7 11 10 10 15 28 18 16 18 22 24 18 0 -1 27 9 21
13 11 9 9 15 13 11 13 8 8 10 7 8 9 12 15 10 12 9 12 11 6 4 5 9 7 7 11 10 15 12 2 14 14 6 17 22 20 11 19 10 16 0
17 15 15 15 12 13 13 17 19 16 20 14 15 12 11 11 13 13 14 8 9 9 5 3 8 7 3 11 15 14 -7 -11 9 3 7 6 3 28 13 -19 25 27 7
20 20 22 21 22 21 21 23 24 24 26 20 18 15 16 10 8 10 12 14 9 8 10 7 6 6 4 13 16 10 -13 17 -1 11 11 -1 6 40 28 13 22 8 7
12 11 17 17 14 14 16 18 17 18 22 21 19 21 22 30 34 21 14 10 12 8 11 9 11 6 7 14 20 16 20 10 12 29 -5 19 8 26 19 -2 8 4 5
10 8 6 3 10 2 5 6 5 1 -0 5 19 28 26 22 21 20 25 40 27 21 14 12 14 13 12 9 12 23 1 26 2 -2 9 3 8 5 -9 6 4 7 11
Height
5806 5805 5806 5806 5806 5807 5808 5807 5806 5805 5804 5806 5808 5809 5809 5809 5810 5809 5809 5809 5809 5810 5811 5811 5813 5814 5813 5814 5815 5815 5815 5815 5815 5815 5814 5812 5810 5811 5811 5814 5815 5818 5820
5796 5797 5797 5797 5798 5798 5797 5798 5798 5797 5795 5796 5798 5798 5800 5801 5800 5800 5799 5800 5800 5801 5804 5804 5806 5807 5808 5809 5810 5810 5811 5812 5812 5813 5812 5811 5810 5808 5807 5809 5811 5813 5816
5786 5787 5786 5786 5787 5788 5788 5788 5788 5787 5786 5786 5788 5789 5790 5791 5790 5792 5792 5792 5791 5792 5795 5797 5797 5800 5802 5802 5803 5804 5805 5806 5807 5808 5809 5808 5808 5806 5805 5805 5807 5809 5812
5774 5774 5774 5775 5776 5776 5776 5777 5777 5777 5777 5776 5778 5779 5780 5780 5781 5782 5782 5782 5783 5783 5787 5789 5790 5794 5795 5796 5796 5797 5798 5800 5801 5802 5803 5803 5804 5803 5803 5801 5801 5803 5806
5762 5761 5761 5761 5762 5763 5763 5766 5766 5765 5765 5765 5767 5767 5768 5772 5774 5772 5773 5771 5771 5773 5776 5778 5781 5786 5788 5787 5788 5789 5790 5790 5792 5795 5797 5797 5798 5799 5799 5798 5799 5798 5800
5747 5748 5748 5747 5747 5748 5750 5752 5754 5754 5755 5755 5756 5756 5753 5754 5758 5756 5756 5758 5761 5763 5765 5767 5769 5776 5778 5778 5777 5780 5781 5782 5783 5785 5789 5790 5791 5792 5794 5793 5793 5794 5795
5727 5730 5732 5733 5733 5733 5735 5738 5740 5742 5743 5744 5743 5745 5736 5738 5741 5743 5737 5742 5750 5752 5755 5758 5763 5765 5767 5769 5769 5771 5773 5775 5776 5776 5779 5782 5783 5785 5786 5788 5787 5787 5788
5708 5711 5713 5715 5718 5717 5718 5722 5725 5727 5729 5731 5731 5730 5732 5736 5739 5736 5740 5744 5741 5741 5746 5750 5753 5755 5758 5759 5762 5763 5763 5765 5765 5765 5768 5772 5774 5777 5779 5779 5781 5781 5781
5691 5693 5695 5697 5699 5702 5702 5704 5708 5712 5714 5717 5719 5717 5718 5722 5726 5728 5730 5733 5734 5736 5739 5744 5746 5748 5750 5751 5753 5755 5755 5755 5757 5757 5757 5761 5764 5767 5770 5771 5772 5774 5775
5676 5679 5681 5682 5683 5684 5685 5687 5690 5695 5698 5701 5704 5706 5705 5709 5713 5717 5718 5719 5723 5726 5730 5734 5736 5739 5740 5742 5743 5745 5747 5747 5749 5749 5748 5750 5754 5757 5760 5763 5764 5766 5767
5663 5667 5669 5670 5670 5670 5671 5671 5674 5678 5681 5686 5689 5692 5694 5696 5701 5704 5709 5712 5715 5719 5721 5723 5726 5728 5730 5731 5734 5736 5738 5740 5740 5741 5740 5740 5742 5746 5751 5753 5755 5757 5758
5651 5655 5657 5658 5657 5657 5658 5658 5659 5662 5665 5669 5674 5677 5681 5684 5687 5691 5695 5701 5705 5707 5708 5711 5713 5716 5720 5722 5724 5725 5728 5729 5730 5730 5731 5732 5732 5736 5739 5744 5746 5748 5749
5639 5644 5646 5646 5646 5645 5646 5645 5645 5647 5650 5654 5659 5662 5666 5669 5673 5677 5680 5686 5690 5693 5696 5699 5702 5705 5708 5711 5712 5715 5717 5719 5719 5720 5722 5723 5723 5726 5728 5731 5734 5737 5739
5628 5634 5634 5634 5634 5634 5634 5634 5633 5634 5635 5639 5644 5649 5652 5655 5659 5663 5667 5670 5675 5680 5685 5689 5691 5693 5694 5696 5699 5702 5704 5705 5707 5708 5711 5713 5714 5715 5718 5720 5722 5725 5728
5621 5623 5624 5625 5626 5626 5625 5624 5622 5622 5623 5625 5630 5634 5638 5641 5645 5648 5653 5655 5660 5666 5673 5675 5678 5680 5682 5684 5686 5688 5689 5691 5693 5695 5697 5699 5700 5701 5704 5706 5709 5712 5715
5612 5614 5616 5617 5618 5618 5617 5614 5612 5610 5611 5612 5616 5621 5624 5628 5633 5636 5639 5642 5646 5649 5656 5659 5663 5666 5666 5668 5669 5672 5674 5676 5678 5678 5680 5682 5684 5686 5688 5691 5695 5698 5702
5603 5605 5607 5609 5610 5609 5607 5605 5602 5600 5599 5600 5603 5607 5612 5617 5621 5624 5627 5630 5634 5636 5640 5644 5646 5648 5652 5654 5655 5657 5657 5658 5660 5660 5661 5662 5666 5668 5672 5675 5680 5683 5687
5595 5596 5599 5600 5601 5600 5599 5596 5594 5592 5590 5589 5593 5596 5599 5604 5607 5611 5614 5617 5620 5623 5626 5629 5632 5635 5637 5638 5639 5639 5640 5640 5640 5642 5642 5643 5646 5651 5656 5659 5663 5668 5673
5587 5588 5590 5591 5591 5591 5590 5589 5587 5584 5582 5581 5583 5584 5585 5588 5593 5595 5599 5602 5605 5609 5612 5614 5618 5620 5622 5622 5624 5624 5624 5623 5622 5622 5623 5625 5628 5633 5638 5643 5647 5653 5658
5578 5580 5580 5581 5581 5581 5580 5579 5577 5575 5574 5573 5573 5574 5575 5576 5578 5582 5586 5589 5592 5595 5597 5600 5604 5605 5605 5608 5608 5608 5607 5607 5607 5606 5606 5607 5610 5616 5622 5626 5632 5638 5644
5568 5569 5570 5570 5570 5570 5569 5567 5566 5566 5565 5565 5565 5565 5565 5566 5568 5571 5573 5577 5579 5580 5583 5586 5588 5588 5592 5592 5591 5591 5591 5589 5591 5591 5592 5591 5593 5599 5605 5610 5616 5623 5630
5557 5558 5559 5560 5560 5559 5558 5557 5556 5556 5555 5554 5554 5553 5553 5555 5556 5558 5560 5562 5564 5566 5569 5570 5572 5575 5576 5573 5573 5575 5576 5575 5577 5580 5579 5580 5580 5583 5589 5596 5602 5608 5614
5549 5549 5550 5550 5550 5549 5548 5547 5546 5545 5545 5544 5543 5543 5543 5543 5544 5545 5546 5548 5550 5552 5554 5556 5557 5559 5559 5557 5558 5560 5562 5559 5563 5566 5567 5568 5570 5573 5577 5581 5588 5593 5599
5543 5543 5543 5542 5543 5542 5540 5538 5536 5535 5533 5533 5531 5530 5530 5529 5530 5531 5532 5533 5536 5537 5539 5539 5540 5541 5542 5542 5542 5544 5546 5548 5549 5550 5553 5556 5559 5558 5563 5569 5575 5581 5586
5540 5539 5539 5538 5537 5536 5534 5532 5531 5529 5526 5525 5523 5521 5520 5518 5517 5517 5517 5518 5519 5520 5522 5523 5524 5525 5525 5526 5527 5528 5530 5532 5535 5540 5540 5543 5546 5547 5552 5558 5564 5569 5574
5537 5537 5536 5535 5533 5531 5529 5528 5526 5524 5521 5520 5517 5515 5513 5512 5509 5507 5505 5505 5505 5505 5506 5507 5508 5508 5508 5508 5511 5511 5514 5517 5521 5526 5528 5530 5533 5537 5540 5545 5551 5557 5561